www.pogodaiklimat.ru

Погода и климат >> Архив погоды >> Финляндия >> Остров Уто


ПОГОДА на Острове Уто

  • Прогноз погоды на Острове Уто
  • Монитор погоды на Острове Уто

АРХИВ ПОГОДЫ на Острове Уто

Время (UTC), дата Ветер
(напр.,м/с)
 
Видим.   Явления Облачность Т
(С)
Тd
(С)
f
(%)
Тe
(С)
Тes
(С)
Комфортность P
(гПа)
Po
(гПа)
Тmin
(С)
Tmax
(С)
R
(мм)
R24
(мм)
S
(см)
21 18.06 ЮЗ 7-8
{8}
27 км ясно +13.8 +12.3 91 +11 +11 1015.8 1014.9
00 19.06 Ю 6-7
{8}
13 км ясно +13.5 +12.8 96 +11 +11 1015.4 1014.4
03 19.06 Ю 7-8
{8}
30 км 4/3
[]
+14.2 +12.7 91 +12 +12 1014.7 1013.7
06 19.06 Ю 7-9
{9}
35 км ясно +16.4 +13.0 80 +15 +17 1014.2 1013.2 +13.5 +16.4
09 19.06 Ю 6-7
{9}
27 км ясно +18.1 +13.7 75 +18 +23 1014.4 1013.4
12 19.06 Ю 7-9
{9}
30 км ясно +18.5 +13.5 73 +18 +22 1014.2 1013.3
15 19.06 Ю 7-8
{9}
35 км 8/0
[]
+16.4 +13.2 81 +15 +16 1013.3 1012.4
18 19.06 Ю 7-8
{8}
29 км 3/3
[]
+15.7 +13.8 88 +14 +14 1012.4 1011.4 +15.5 +18.9
21 19.06 Ю 4-5
{7}
16 км ясно +14.3 +13.3 94 +13 +13 1012.7 1011.7
00 20.06 Ю 5-6
{6}
18 км 9/0
[]
+14.4 +13.3 93 +13 +13 1012.5 1011.5
03 20.06 Ю 5-5
{5}
26 км ясно +14.6 +13.2 91 +13 +13 1012.0 1011.1
06 20.06 ЮВ 5-6
{7}
30 км 3/3
[]
+16.9 +13.6 81 +16 +18 1011.4 1010.4 +13.7 +17.1
09 20.06 ЮВ 7-10
{10}
30 км в посл. час дождь 9/9 2000 м
[]
+18.6 +14.0 75 +19 +19 1010.2 1009.2
12 20.06 ЮВ 7-9
{9}
35 км 8/8 2000 м
[]
+18.5 +14.2 76 +18 +19 1009.4 1008.5
15 20.06 ЮВ 5-7
{9}
35 км ясно +18.2 +14.3 78 +18 +21 1008.2 1007.3
18 20.06 Ю 5-6
{7}
23 км 1/1 1000 м
[]
+17.0 +14.9 87 +16 +17 1007.5 1006.5 +16.1 +19.1
21 20.06 Ю 6-7
{7}
13 км ясно +15.3 +14.5 95 +14 +14 1007.5 1006.5
00 21.06 Ю 6-7
{8}
6000 м дымка ясно +15.2 +14.7 97 +13 +13 1006.8 1005.8
03 21.06 ЮЗ 6-7
{9}
3300 м дымка 1/0
[]
+15.0 +14.5 97 +13 +13 1007.5 1006.5
06 21.06 ЮЗ 5-6
{7}
12 км 9/9 1000 м
[]
+16.2 +14.6 90 +15 +15 1008.4 1007.4 +14.8 +17.0
09 21.06 З 7-8
{8}
21 км ясно +17.7 +14.9 84 +17 +20 1009.8 1008.8
12 21.06 ЮЗ 7-8
{8}
35 км ясно +18.9 +14.7 77 +19 +23 1010.8 1009.8
15 21.06 ЮЗ 8-9
{10}
29 км ясно +17.8 +13.4 75 +17 +18 1010.9 1009.9
18 21.06 ЮЗ 6-8
{10}
35 км 4/4
[]
+16.4 +13.4 82 +15 +15 1010.5 1009.5 +16.1 +19.2
21 21.06 ЮЗ 7-8
{8}
40 км ясно +15.2 +12.4 83 +13 +13 1010.9 1010.0
00 22.06 ЮЗ 6-7
{8}
29 км 9/9
[]
+14.7 +13.4 92 +13 +13 1011.4 1010.4
03 22.06 З 7-9
{11}
18 км слаб. ливневой дождь 9/0 1500 м
[]
+13.5 +10.9 84 +11 +11 1011.9 1010.9 0.2
06 22.06 З 10-12
{13}
35 км ясно +14.6 +10.6 77 +12 +12 1013.0 1012.0 +12.7 +16.4 1
09 22.06 ЮЗ 10-14
{14}
28 км ясно +15.6 +11.2 75 +13 +14 1015.3 1014.3
12 22.06 ЮЗ 9-11
{11}
23 км ясно +16.7 +12.0 74 +15 +17 1017.4 1016.4
15 22.06 З 5-6
{7}
29 км ясно +16.3 +12.6 79 +15 +19 1018.8 1017.8
18 22.06 ЮЗ 5-6
{6}
30 км ясно +15.4 +12.5 83 +14 +14 1018.9 1017.9 +14.6 +17.2
21 22.06 Ю 3-4
{4}
30 км 3/0 2000 м
[]
+13.8 +11.8 88 +13 +13 1019.9 1018.9
00 23.06 ЮЗ 4-5
{5}
29 км ясно +13.2 +12.4 95 +11 +11 1020.6 1019.6
03 23.06 С 3-3
{3}
29 км 3/0
[]
+13.5 +12.7 95 +12 +13 1021.6 1020.6
06 23.06 В 2-3
{4}
17 км ясно +16.6 +11.7 73 +17 +23 1022.5 1021.5 +12.6 +16.9
09 23.06 Ю 3-4
{4}
35 км ясно +17.2 +13.0 76 +17 +28 1023.1 1022.1
12 23.06 ЮЗ 5-6
{6}
30 км 3/0
[]
+18.0 +12.7 71 +18 +24 1023.1 1022.2
15 23.06 ЮЗ 4-6
{6}
40 км 6/0
[]
+16.7 +12.4 76 +16 +19 1022.9 1021.9
18 23.06 ЮЗ 6-7
{7}
45 км 5/5
[]
+15.4 +12.5 83 +14 +14 1022.7 1021.8 +15.4 +19.0
21 23.06 ЮЗ 4-5
{7}
35 км 3/0
[]
+14.5 +12.5 88 +13 +13 1023.2 1022.2
00 24.06 СЗ 3-4
{4}
40 км 9/9
[]
+14.2 +12.8 91 +13 +13 1024.4 1023.4
03 24.06 СЗ 3-4
{5}
35 км ясно +15.0 +13.7 92 +14 +15 1026.2 1025.2
06 24.06 СЗ 5-6
{6}
40 км ясно +16.6 +12.2 75 +16 +19 1027.7 1026.7 +13.8 +16.9
09 24.06 СЗ 6-8
{8}
40 км ясно +18.0 +12.0 68 +17 +23 1029.2 1028.3
12 24.06 СЗ 6-8
{9}
35 км 1/0
[]
+18.4 +11.0 62 +18 +23 1030.5 1029.5
15 24.06 С 7-9
{9}
45 км ясно +16.6 +8.8 60 +15 +17 1030.4 1029.5
18 24.06 СЗ 5-7
{8}
40 км ясно +14.7 +9.6 71 +13 +14 1030.3 1029.3 +14.7 +18.6
21 24.06 СЗ 4-5
{5}
50 км ясно +13.5 +8.6 72 +12 +12 1031.1 1030.1
00 25.06 СЗ 3-3
{4}
50 км ясно +12.9 +9.9 82 +12 +12 1031.0 1030.0
03 25.06 СВ 2-3
{4}
50 км 3/0
[]
+13.7 +10.4 80 +13 +14 1031.0 1030.0
06 25.06 ЮВ 2-3
{3}
40 км 4/4
[]
+14.9 +11.5 80 +15 +18 1031.2 1030.2 +12.6 +15.4
09 25.06 ЮЗ 3-4
{5}
40 км 9/9
[]
+17.0 +11.9 72 +17 +18 1030.7 1029.7
12 25.06 Ю 2-3
{3}
40 км 6/6
[]
+16.8 +10.5 66 +17 +22 1029.6 1028.7
15 25.06 Ю 2-3
{4}
45 км 8/8
[]
+16.6 +10.8 69 +17 +18 1028.0 1027.0

 

Местоположение метеостанции Остров Уто (Финляндия): широта 59.78 долгота 21.37 высота над уровнем моря 9 м.

В архиве по умолчанию представлена погода на Острове Уто за последнюю неделю. Архивные данные за месяц целиком и за предыдущие месяцы, начиная с января 2011 года, Вы можете получить, выбрав интересующий диапазон дат из раскрывающегося списка и нажав кнопку "Ввод!".


*Определитесь, кто Вы:
робот инопланетянин человек

Внимание! Время в таблицах - всемирное. Для получения местного времени необходимо прибавить поправку, которая равна 1 ч.

Смотрите также архив погоды в соседних городах и на ближайших метеорологических станциях:

Погода на Острове Фагерхольм (Финляндия) (41 км)
Погода на Вано (Финляндия) (47 км)
Погода в Кумлинге (Финляндия) (64 км)
Погода в Кокар Богскар (Финляндия) (64 км)
Погода в Логнес Харбор (Финляндия) (71 км)
Погода на Острове Раякари (Финляндия) (78 км)
Погода в Лемланд Нихамн (Финляндия) (82 км)
Погода в Ханко (Финляндия) (87 км)
Погода в Турку (Финляндия) (87 км)
Погода на Острове Руссаро (Финляндия) (88 км)

Пояснения к столбцам:

Ветер - указаны скорость ветра в м/с - средняя за 10 мин, порывы в срок и между сроками (в фигурных скобках) и направление, откуда дует ветер: С - северный, СВ - северо-восточный, В - восточный, ЮВ - юго-восточный, Ю - южный, ЮЗ - юго-западный, З - западный, СЗ - северо-западный.
Видимость - горизонтальная дальность видимости в метрах или километрах. При видимости от 1 до 10 км при отсутствии осадков обычно наблюдается дымка, при ухудшении видимости до 1 км и менее - туман. В сухую погоду видимость может ухудшаться дымом, пылью или мглою.
Явления - указаны атмосферные явления, наблюдавшиеся в срок или в последний час перед сроком; фигурными скобками обозначены явления, наблюдавшиеся между сроками (за 1-3 часа до срока); квадратными скобками обозначены град или гололедные отложения с указанием их диаметра в мм.
Облачность - указаны через наклонную черту общая и нижняя облачность в баллах и высота нижней границы облаков в метрах; квадратными скобками обозначены формы облаков: Ci - перистые, Cs - перисто-слоистые, Cc - перисто-кучевые, Ac - высококучевые, As - высокослоистые, Sc - слоисто-кучевые, Ns - слоисто-дождевые, Cu - кучевые, Cb - кучево-дождевые. Подробнее классификацию облаков см. в Атласе облаков (PDF).
T - Температура воздуха - температура, измеренная на высоте 2 м над землей.
Td - Температура точки росы - температура, при понижении до которой содержащийся в воздухе водяной пар достигнет насыщения.
f - Относительная влажность воздуха - влажноcть воздуха, измеренная на высоте 2 м над землей.
Te - Эффективная температура - температура, которую ощущает одетый по сезону человек в тени. Характеристика душности погоды. При расчете учитывается влияние влажности воздуха и скорости ветра на теплоощущения человека.
Tes - Эффективная температура на солнце - температура, которую ощущает человек, с поправкой на солнечный нагрев. Характеристика знойности погоды. Зависит от высоты солнца над горизонтом, облачности и скорости ветра. Ночью, в пасмурную погоду, а также при ветре 12 м/с и более поправка равна нулю.
P - Атмосферное давление - приведенное к уровню моря атмосферное давление.
Po - Атмосферное давление - измеренное на уровне метеостанции атмосферное давление.
Tmin - Минимальная температура - минимум температуры воздуха на высоте 2 м над землей.
Tmax - Максимальная температура - максимум температуры воздуха на высоте 2 м над землей.
R - Количество осадков - Количество выпавших осадков за период времени, мм. При наведении курсора мыши на число - период времени, за который выпало указанное количество осадков.
R24 - Количество осадков - Количество выпавших осадков за 24 часа, мм.
S - Снежный покров - Высота снежного покрова, см. При наведении курсора мыши на число - состояние снежного покрова и степень покрытия местности в баллах.